Time,TemperatureF,DewpointF,PressureIn,WindDirection,WindDirectionDegrees,WindSpeedMPH,WindSpeedGustMPH,Humidity,HourlyPrecipIn,Conditions,Clouds,dailyrainin,SoftwareType,DateUTC
2014-12-26 00:22:00,40.0,34.0,29.92,SSW,204,0.0,0.0,80,0.00,,,0.00,,2014-12-26 06:22:00,
2014-12-26 00:52:00,40.0,34.0,29.92,SSW,204,0.0,0.0,80,0.00,,,0.00,,2014-12-26 06:52:00,
2014-12-26 01:22:00,39.0,33.0,29.92,SSW,204,0.0,0.0,80,0.00,,,0.00,,2014-12-26 07:22:00,
2014-12-26 01:53:00,39.0,34.0,29.92,SSW,204,0.0,0.0,81,0.00,,,0.00,,2014-12-26 07:53:00,
2014-12-26 02:22:00,39.0,34.0,29.92,SSW,204,0.0,0.0,81,0.00,,,0.00,,2014-12-26 08:22:00,
2014-12-26 02:52:00,39.0,34.0,29.91,SSW,204,0.0,0.0,81,0.00,,,0.00,,2014-12-26 08:52:00,
2014-12-26 03:22:00,39.0,34.0,29.91,SSW,204,0.0,0.0,81,0.00,,,0.00,,2014-12-26 09:22:00,
2014-12-26 03:53:00,39.0,34.0,29.91,SSW,204,0.0,0.0,81,0.00,,,0.00,,2014-12-26 09:53:00,
2014-12-26 04:23:00,39.0,34.0,29.90,SSW,204,0.0,0.0,82,0.00,,,0.00,,2014-12-26 10:23:00,
2014-12-26 04:54:00,39.0,34.0,29.90,SSW,204,0.0,0.0,82,0.00,,,0.00,,2014-12-26 10:54:00,
2014-12-26 05:22:00,40.0,35.0,29.91,SSW,204,0.0,0.0,82,0.00,,,0.00,,2014-12-26 11:22:00,
2014-12-26 05:52:00,40.0,35.0,29.91,SSW,204,0.0,0.0,82,0.00,,,0.00,,2014-12-26 11:52:00,
2014-12-26 06:22:00,40.0,35.0,29.91,SSW,204,0.0,0.0,82,0.00,,,0.00,,2014-12-26 12:22:00,
2014-12-26 06:52:00,39.0,34.0,29.91,SSW,204,0.0,0.0,81,0.00,,,0.00,,2014-12-26 12:52:00,
2014-12-26 07:22:00,39.0,34.0,29.92,SSW,204,0.0,0.0,82,0.00,,,0.00,,2014-12-26 13:22:00,
2014-12-26 07:52:00,38.0,33.0,29.93,SSW,204,0.0,0.0,82,0.00,,,0.00,,2014-12-26 13:52:00,
2014-12-26 08:22:00,38.0,33.0,29.92,SSW,204,0.0,0.0,83,0.00,,,0.00,,2014-12-26 14:22:00,
2014-12-26 08:52:00,38.0,33.0,29.93,SSW,204,0.0,0.0,83,0.00,,,0.00,,2014-12-26 14:52:00,
2014-12-26 09:22:00,39.0,34.0,29.95,SSW,204,0.0,0.0,83,0.00,,,0.00,,2014-12-26 15:22:00,
2014-12-26 09:54:00,40.0,35.0,29.96,SSW,204,0.0,0.0,82,0.00,,,0.00,,2014-12-26 15:54:00,
2014-12-26 10:23:00,42.0,36.0,29.96,SSW,204,0.0,0.0,79,0.00,,,0.00,,2014-12-26 16:23:00,
2014-12-26 10:53:00,44.0,38.0,29.95,SSW,204,0.0,0.0,78,0.00,,,0.00,,2014-12-26 16:53:00,
2014-12-26 11:22:00,46.0,38.0,29.94,SSW,204,0.0,0.0,73,0.00,,,0.00,,2014-12-26 17:22:00,
2014-12-26 11:53:00,47.0,38.0,29.93,SSW,204,0.0,0.0,72,0.00,,,0.00,,2014-12-26 17:53:00,
2014-12-26 12:22:00,49.0,39.0,29.93,SSW,204,0.0,0.0,68,0.00,,,0.00,,2014-12-26 18:22:00,